Weather History for Sarasota, FL

Change the Weather History Date:

Thursday, January 24, 2013

  Actual Average Record
Temperature  
Mean Temperature 58 °F 62 °F  
Max Temperature 74 °F 71 °F 85 °F (1967)
Min Temperature 42 °F 52 °F 29 °F (1960)
Degree Days  
Heating Degree Days 7 5  
Month to date heating degree days 33 129  
Since 1 July heating degree days 151 284  
Cooling Degree Days 0 2  
Month to date cooling degree days 95 48  
Year to date cooling degree days 95 48  
Growing Degree Days 8 (Base 50)    
Moisture  
Dew Point 45 °F    
Average Humidity 68    
Maximum Humidity 96    
Minimum Humidity 35    
Precipitation  
Precipitation 0.00 in 0.05 in 6.10 in (1998)
Month to date precipitation 0.12 2.09  
Year to date precipitation 0.12 2.09  
Sea Level Pressure  
Sea Level Pressure 30.28 in    
Wind  
Wind Speed 5 mph (NNE)    
Max Wind Speed 15 mph    
Max Gust Speed 20 mph    
Visibility 10 miles    
Events      
T = Trace of Precipitation, MM = Missing Value Source: NWS Daily Summary

Daily Weather History Graph

Daily Weather History Graph

Search for Another Location

Airport:

Trip Planner

Search our weather history database for the weather conditions in past years. The results will help you decide how hot, cold, wet, or windy it might be!

Date:

Astronomy

Jan. 24, 2013 Rise Set
Actual Time 7:19 AM EST 6:05 PM EST
Civil Twilight 6:54 AM EST 6:30 PM EST
Nautical Twilight 6:26 AM EST 6:58 PM EST
Astronomical Twilight 5:58 AM EST 7:26 PM EST
Moon 4:09 PM EST (1/24) 5:13 AM EST (1/24)
Length of Visible Light 11h 35m
Length of Day
10h 45m
Waxing Gibbous, 94% of the Moon is Illuminated
Jan 24
Waxing Gibbous
Jan 26
Full
Feb 3
Last Quarter
Feb 10
New
Feb 17
First Quarter

Hourly Weather History & Observations

Time (EST) Temp. Windchill Dew Point Humidity Pressure Visibility Wind Dir Wind Speed Gust Speed Precip Events Conditions
12:53 AM 51.1 °F - 41.0 °F 68% 30.30 in 10.0 mi NE 6.9 mph - N/A   Clear
1:53 AM 46.9 °F - 39.9 °F 77% 30.28 in 10.0 mi ENE 4.6 mph - N/A   Clear
2:53 AM 43.0 °F - 39.0 °F 86% 30.26 in 10.0 mi Calm Calm - N/A   Clear
3:53 AM 43.0 °F 40.3 °F 39.0 °F 86% 30.25 in 10.0 mi East 4.6 mph - N/A   Clear
4:53 AM 44.1 °F 42.5 °F 41.0 °F 89% 30.26 in 10.0 mi ESE 3.5 mph - N/A   Clear
5:53 AM 44.1 °F - 41.0 °F 89% 30.28 in 10.0 mi Calm Calm - N/A   Clear
6:53 AM 43.0 °F - 41.0 °F 93% 30.29 in 10.0 mi Calm Calm - N/A   Clear
7:53 AM 43.0 °F - 41.0 °F 93% 30.30 in 9.0 mi Calm Calm - N/A   Clear
8:53 AM 53.1 °F - 45.0 °F 74% 30.32 in 10.0 mi NE 4.6 mph - N/A   Clear
9:53 AM 61.0 °F - 42.1 °F 50% 30.34 in 10.0 mi NNE 4.6 mph - N/A   Clear
10:53 AM 68.0 °F - 42.1 °F 39% 30.34 in 10.0 mi NNE 6.9 mph - N/A   Clear
11:53 AM 70.0 °F - 41.0 °F 35% 30.32 in 10.0 mi North 5.8 mph - N/A   Clear
12:53 PM 71.1 °F - 43.0 °F 36% 30.29 in 10.0 mi North 9.2 mph - N/A   Clear
1:53 PM 72.0 °F - 43.0 °F 35% 30.25 in 10.0 mi NNW 10.4 mph - N/A   Clear
2:53 PM 72.0 °F - 44.1 °F 37% 30.24 in 10.0 mi NNW 11.5 mph - N/A   Clear
3:53 PM 70.0 °F - 46.0 °F 42% 30.25 in 10.0 mi NNW 12.7 mph - N/A   Clear
4:53 PM 68.0 °F - 46.9 °F 47% 30.25 in 10.0 mi NNW 10.4 mph - N/A   Clear
5:53 PM 64.0 °F - 50.0 °F 60% 30.25 in 10.0 mi NNW 6.9 mph - N/A   Clear
6:53 PM 60.1 °F - 51.1 °F 72% 30.26 in 10.0 mi NNW 5.8 mph - N/A   Clear
7:53 PM 59.0 °F - 51.1 °F 75% 30.27 in 10.0 mi North 5.8 mph - N/A   Clear
8:53 PM 59.0 °F - 52.0 °F 78% 30.28 in 10.0 mi North 4.6 mph - N/A   Clear
9:53 PM 57.0 °F - 52.0 °F 83% 30.28 in 10.0 mi North 3.5 mph - N/A   Clear
10:53 PM 55.9 °F - 53.1 °F 90% 30.29 in 10.0 mi NNE 3.5 mph - N/A   Clear
11:53 PM 53.1 °F - 50.0 °F 89% 30.28 in 6.0 mi Calm Calm - N/A   Clear